CW4167 Weather Reports


Display with metric or nautical units.
time (UTC)temp
F
wind
direction
speed
MPH
gust
MPH
rain 1hr
in
rain 24hr
in
rain mn
in
humidity
%
barometer
mb
20260903055710 60 151 4.0 14.0 0.01 0.18 0.05 93 1009.5
20260903054208 60 192 4.0 7.0 0.01 0.18 0.05 93 1009.6
20260903053208 60 178 5.0 13.0 0.00 0.17 0.04 93 1009.7
20260903052709 60 182 7.0 10.0 0.00 0.17 0.04 93 1009.7
20260903052208 60 183 6.0 8.0 0.00 0.17 0.04 93 1009.8
20260903051208 59 165 7.0 14.0 0.01 0.17 0.04 93 1009.9
20260903050209 59 179 5.0 7.0 0.01 0.17 0.04 93 1010.0
20260903045708 59 191 5.0 8.0 0.01 0.17 0.04 93 1010.0
20260903044210 59 185 5.0 8.0 0.01 0.17 0.04 93 1010.2
20260903043707 59 169 5.0 7.0 0.01 0.17 0.04 93 1010.2
20260903043208 59 188 4.0 7.0 0.01 0.17 0.04 93 1010.3
20260903042208 59 197 4.0 8.0 0.01 0.17 0.04 93 1010.4
20260903040708 59 184 6.0 7.0 0.00 0.16 0.03 93 1010.5
20260903034208 59 230 3.0 7.0 0.00 0.16 0.03 92 1010.6
20260903033208 59 166 2.0 6.0 0.00 0.16 0.03 92 1010.7
20260903030709 59 189 3.0 8.0 0.00 0.16 0.03 92 1010.9
20260903025208 59 169 5.0 8.0 0.00 0.16 0.03 92 1010.9
20260903024708 59 180 5.0 7.0 0.00 0.16 0.03 92 1011.0
20260903024210 59 188 2.0 6.0 0.00 0.16 0.03 92 1011.0
20260903021708 59 196 5.0 8.0 0.01 0.17 0.03 92 1011.5
20260903020709 59 186 3.0 6.0 0.02 0.17 0.03 92 1011.5
20260903015209 59 188 5.0 6.0 0.03 0.17 0.03 92 1011.5
20260903013709 59 212 3.0 5.0 0.03 0.17 0.03 92 1011.7
20260903012209 59 196 4.0 7.0 0.03 0.17 0.03 92 1011.7
20260903010708 59 227 5.0 8.0 0.01 0.15 0.01 92 1011.9
20260903005207 58 189 5.0 7.0 0.00 0.14 0.00 92 1011.9
20260903004709 58 203 5.0 8.0 0.00 0.14 0.00 92 1011.9
20260903004208 58 202 4.0 7.0 0.00 0.14 0.00 92 1011.9
20260903003709 58 188 2.0 7.0 0.00 0.14 0.00 92 1011.9
20260903003209 58 184 3.0 6.0 0.00 0.14 0.00 92 1012.0
20260903000708 58 209 4.0 7.0 0.00 0.14 0.00 92 1012.1
20260903000207 58 200 2.0 5.0 0.00 0.14 0.00 92 1012.1
20260902235208 58 206 3.0 5.0 0.00 0.14 0.00 92 1012.2
20260902234707 58 200 2.0 6.0 0.00 0.14 0.00 92 1012.2
20260902234208 58 235 2.0 5.0 0.00 0.14 0.00 92 1012.3
20260902233208 58 227 3.0 7.0 0.00 0.14 0.00 92 1012.3
20260902232207 58 234 2.0 6.0 0.00 0.14 0.00 92 1012.4
20260902231707 58 247 4.0 8.0 0.00 0.14 0.00 92 1012.4
20260902231207 58 257 5.0 6.0 0.00 0.14 0.00 92 1012.4
20260902230208 58 226 5.0 8.0 0.00 0.14 0.00 92 1012.4
20260902225708 58 240 4.0 7.0 0.00 0.14 0.00 92 1012.4
20260902225209 58 256 3.0 6.0 0.00 0.14 0.00 92 1012.4
20260902224709 58 196 5.0 7.0 0.00 0.14 0.00 92 1012.4
20260902224209 58 242 3.0 6.0 0.00 0.14 0.00 92 1012.4
20260902223209 58 219 4.0 6.0 0.01 0.14 0.00 92 1012.5
20260902222207 58 217 3.0 7.0 0.01 0.14 0.00 92 1012.5
20260902220209 58 207 3.0 8.0 0.01 0.14 0.00 92 1012.4
20260902215708 58 225 6.0 15.0 0.01 0.14 0.14 92 1012.4
20260902215208 58 233 5.0 7.0 0.01 0.14 0.14 92 1012.4
20260902214708 58 188 4.0 8.0 0.01 0.14 0.14 92 1012.3
20260902214209 58 228 5.0 8.0 0.01 0.14 0.14 92 1012.3
20260902213207 58 207 5.0 7.0 0.01 0.14 0.14 92 1012.3
20260902212208 58 232 5.0 13.0 0.00 0.13 0.13 92 1012.3
20260902211707 58 206 6.0 14.0 0.00 0.13 0.13 92 1012.3
20260902211207 58 222 3.0 8.0 0.00 0.13 0.13 92 1012.3
20260902203208 58 200 5.0 10.0 0.00 0.13 0.13 91 1012.5
20260902202708 58 223 5.0 14.0 0.00 0.13 0.13 91 1012.5
20260902202210 58 180 4.0 8.0 0.00 0.13 0.13 91 1012.4
20260902201707 58 212 3.0 7.0 0.00 0.13 0.13 91 1012.4
20260902200708 58 189 7.0 10.0 0.00 0.13 0.13 91 1012.4
20260902194710 58 211 5.0 8.0 0.00 0.13 0.13 91 1012.5
20260902194207 58 184 5.0 13.0 0.00 0.13 0.13 91 1012.5
20260902192707 58 193 6.0 8.0 0.00 0.13 0.13 91 1012.5
20260902192207 58 206 4.0 7.0 0.00 0.13 0.13 91 1012.5
20260902191208 58 222 5.0 10.0 0.00 0.16 0.13 91 1012.6
20260902185709 58 229 4.0 8.0 0.00 0.16 0.13 91 1012.6
20260902184707 58 202 6.0 7.0 0.00 0.16 0.13 90 1012.5
20260902183707 58 199 5.0 8.0 0.00 0.16 0.13 90 1012.4
20260902182207 59 205 5.0 13.0 0.00 0.16 0.13 90 1012.2
20260902181207 60 230 3.0 7.0 0.00 0.16 0.13 90 1012.2
20260902180707 60 219 6.0 10.0 0.00 0.16 0.13 91 1012.2
20260902175708 60 223 5.0 13.0 0.00 0.16 0.13 91 1012.2
20260902175207 60 179 5.0 15.0 0.00 0.16 0.13 91 1012.2
20260902174207 60 209 6.0 15.0 0.00 0.16 0.13 91 1012.1
20260902172707 60 200 6.0 10.0 0.00 0.16 0.13 90 1012.1
20260902171707 61 203 9.0 15.0 0.01 0.16 0.13 90 1012.1
20260902170207 61 220 7.0 15.0 0.02 0.16 0.13 90 1012.2
20260902165207 61 208 8.0 15.0 0.03 0.16 0.13 90 1012.3
20260902163707 60 195 8.0 15.0 0.03 0.16 0.13 90 1012.4
20260902163209 60 203 6.0 10.0 0.03 0.16 0.13 90 1012.4
20260902162707 60 217 5.0 10.0 0.03 0.16 0.13 90 1012.4
20260902161708 60 230 6.0 8.0 0.02 0.15 0.12 89 1012.4
20260902161207 60 201 6.0 10.0 0.02 0.15 0.12 89 1012.5
20260902160707 60 194 7.0 15.0 0.01 0.14 0.11 89 1012.5
20260902160209 60 210 5.0 8.0 0.02 0.14 0.11 89 1012.6
20260902155709 60 241 5.0 9.0 0.01 0.13 0.10 89 1012.6
20260902154709 60 230 3.0 7.0 0.01 0.13 0.10 89 1012.6
20260902153207 61 178 7.0 8.0 0.02 0.13 0.10 90 1012.6
20260902152207 60 199 6.0 10.0 0.03 0.13 0.10 89 1012.6
20260902150709 60 202 6.0 15.0 0.06 0.13 0.10 89 1012.7
20260902145208 59 196 7.0 15.0 0.07 0.12 0.09 88 1012.8
20260902144708 59 212 6.0 8.0 0.07 0.12 0.09 88 1012.8
20260902144207 59 193 5.0 13.0 0.07 0.12 0.09 87 1012.7
20260902142709 60 210 9.0 14.0 0.06 0.11 0.07 85 1012.8
20260902142218 61 211 8.0 13.0 0.05 0.10 0.06 84 1012.5
20260902141715 61 249 2.0 7.0 0.04 0.09 0.05 83 1012.5
20260902141211 62 228 5.0 14.0 0.03 0.07 0.04 82 1012.5
20260902140710 63 234 9.0 16.0 0.02 0.06 0.03 80 1012.5
20260902135208 66 242 11.0 21.0 0.00 0.04 0.01 78 1012.5
20260902133208 67 221 10.0 20.0 0.00 0.04 0.01 75 1012.5
20260902132708 67 235 9.0 17.0 0.00 0.04 0.01 74 1012.5
20260902131711 68 223 9.0 25.0 0.00 0.04 0.01 73 1012.5
20260902131208 68 195 10.0 20.0 0.00 0.04 0.01 73 1012.5
20260902130709 68 229 11.0 21.0 0.00 0.04 0.01 72 1012.5
20260902125210 67 241 12.0 20.0 0.00 0.04 0.01 73 1012.5
20260902124208 67 224 10.0 21.0 0.00 0.04 0.01 74 1012.5
20260902123209 67 199 14.0 24.0 0.00 0.04 0.01 74 1012.5
20260902122708 67 231 10.0 17.0 0.00 0.04 0.01 75 1012.5
20260902121208 67 234 12.0 17.0 0.00 0.04 0.01 76 1012.7
20260902120207 67 206 12.0 20.0 0.00 0.04 0.01 77 1012.8
20260902115708 67 197 12.0 23.0 0.00 0.04 0.01 76 1012.8
20260902115208 67 230 9.0 18.0 0.00 0.04 0.01 75 1012.7
20260902114208 67 218 10.0 18.0 0.00 0.04 0.01 75 1012.8
20260902113208 67 223 14.0 23.0 0.00 0.04 0.01 74 1012.9
20260902110708 68 229 14.0 21.0 0.00 0.04 0.01 72 1012.9
20260902110207 69 254 10.0 22.0 0.00 0.04 0.01 71 1012.9
20260902104207 69 212 10.0 23.0 0.00 0.04 0.01 72 1013.0
20260902102209 68 274 5.0 21.0 0.00 0.04 0.01 75 1012.9
20260902101707 68 226 11.0 22.0 0.00 0.04 0.01 74 1012.9
20260902095707 67 233 9.0 18.0 0.00 0.04 0.01 76 1012.8
20260902094709 67 249 14.0 22.0 0.00 0.04 0.01 76 1012.8
20260902094206 67 245 11.0 17.0 0.00 0.04 0.01 74 1012.9
20260902093706 67 249 14.0 20.0 0.00 0.04 0.01 75 1012.9
20260902093206 67 249 10.0 24.0 0.00 0.04 0.01 77 1012.9
20260902092706 67 215 17.0 23.0 0.00 0.04 0.01 77 1012.8
20260902092206 66 254 9.0 18.0 0.00 0.04 0.01 78 1012.9
20260902091206 66 231 9.0 14.0 0.00 0.04 0.01 78 1012.8
20260902085707 65 214 5.0 15.0 0.00 0.04 0.01 81 1013.0
20260902085207 65 215 10.0 20.0 0.00 0.04 0.01 80 1013.0
20260902083206 65 234 13.0 18.0 0.00 0.05 0.01 83 1013.0
20260902081207 63 234 10.0 20.0 0.00 0.05 0.01 85 1013.0
20260902080208 63 210 10.0 17.0 0.00 0.05 0.01 85 1013.0
20260902075207 63 223 12.0 21.0 0.00 0.05 0.01 86 1012.9
20260902074706 63 206 14.0 20.0 0.00 0.05 0.01 87 1012.9
20260902074207 63 201 10.0 20.0 0.00 0.05 0.01 88 1012.9
20260902073707 63 189 11.0 21.0 0.00 0.05 0.01 88 1012.9
20260902073207 62 250 7.0 13.0 0.00 0.05 0.01 89 1012.9
20260902072706 62 191 10.0 20.0 0.00 0.05 0.01 89 1012.9
20260902071707 61 195 8.0 15.0 0.00 0.05 0.01 90 1012.7
20260902065706 60 210 9.0 18.0 0.00 0.05 0.01 91 1012.7
20260902065207 60 210 9.0 14.0 0.00 0.05 0.01 91 1012.7
20260902064706 60 217 7.0 14.0 0.00 0.05 0.01 91 1012.7
20260902061707 59 223 9.0 16.0 0.00 0.06 0.01 92 1012.7